Wetbulb
76.75 77.16 77.72 76.39 76.92 76.46 76.69 77.18 76.62 76.46 76.68 76.30 76.35 76.20 75.95 75.90 76.13 75.85 76.26 75.37 75.36 76.05 75.54 75.92 75.98 75.68 75.34 74.75 74.67 75.45 74.44 73.84 72.93 73.31 73.55 74.14 73.89 73.15 73.20 73.12 73.41 73.32 72.99
76.74 78.20 76.03 76.28 76.54 76.31 77.49 77.26 76.12 75.87 76.09 75.85 75.29 75.60 75.86 75.70 75.62 75.73 75.52 76.73 75.01 75.65 76.17 76.19 76.06 75.84 75.68 75.41 74.64 74.18 74.99 75.17 74.61 73.80 74.71 74.59 74.52 73.93 73.15 73.36 73.60 73.50 73.33
77.35 78.47 75.83 75.32 75.53 77.43 77.66 77.69 76.11 76.20 75.30 75.05 74.28 74.09 74.72 74.64 73.50 73.49 73.41 73.81 75.56 75.24 75.55 76.28 77.00 75.74 76.55 75.24 75.47 75.51 75.08 75.29 75.69 75.60 75.14 74.92 74.92 74.88 74.77 74.57 74.44 74.52 74.35
78.82 78.68 79.49 75.04 75.90 76.95 76.65 76.06 75.48 73.20 72.19 71.73 71.47 71.92 72.11 72.08 71.34 71.78 72.03 72.67 71.81 73.04 75.53 76.00 75.49 75.32 75.25 75.33 75.45 75.63 75.48 75.37 75.58 76.07 75.56 75.38 75.38 75.47 75.37 75.09 75.02 74.84 74.84
77.52 76.95 75.82 76.17 77.60 76.43 75.46 75.25 73.38 73.16 70.58 69.68 68.71 68.87 70.53 70.85 71.32 71.76 72.98 73.82 73.72 72.98 72.62 75.85 74.90 74.50 75.04 75.47 75.49 76.45 76.05 75.51 75.08 75.84 76.17 75.99 75.44 75.34 75.22 74.74 74.69 74.89 75.02
77.64 77.20 76.03 76.28 76.44 76.56 75.80 75.02 73.77 72.08 70.17 69.90 69.10 68.55 70.74 71.96 73.49 73.88 72.79 73.62 73.75 74.23 74.40 75.76 75.10 75.27 74.41 73.68 75.50 75.34 75.24 75.43 75.38 75.06 75.49 75.27 75.24 75.44 75.29 74.97 74.84 75.01 75.14
77.63 77.84 75.89 76.04 76.17 75.48 75.07 75.59 72.46 69.82 68.45 70.96 68.71 69.15 70.15 70.96 72.32 73.22 73.76 72.27 71.51 73.63 73.50 74.45 75.12 74.90 75.21 73.94 73.68 73.89 73.86 74.81 75.78 75.74 75.44 74.87 74.82 74.82 75.01 75.08 74.83 74.98 74.98
78.25 76.84 77.24 76.37 76.59 74.74 75.73 74.32 71.83 67.74 69.65 71.44 67.36 66.90 65.33 67.45 69.69 71.97 72.47 70.75 69.65 72.07 72.15 71.85 73.50 74.61 75.17 75.40 74.07 71.81 71.38 72.40 73.40 73.87 74.92 74.89 74.59 74.40 74.54 74.52 74.58 74.58 74.66
78.24 78.00 76.92 76.72 76.57 75.07 72.24 72.50 71.70 70.08 67.01 70.06 70.12 67.35 64.35 63.39 65.80 69.40 70.18 68.99 69.31 68.25 69.21 69.89 69.66 69.16 70.02 70.71 71.85 70.96 68.53 69.21 70.41 71.31 71.93 72.13 72.56 72.62 74.46 74.44 74.39 74.64 74.47
77.45 77.38 77.51 76.85 76.67 73.80 72.41 71.79 72.08 70.59 70.13 66.91 70.04 71.00 70.02 68.72 64.41 64.17 67.15 67.79 68.32 67.57 67.58 67.07 66.72 67.22 67.39 67.58 67.21 66.15 66.06 65.80 66.40 67.21 67.80 68.82 69.95 71.58 72.46 73.82 74.24 74.24 74.47
77.56 76.40 77.54 76.57 75.37 71.72 72.77 73.04 72.20 71.31 69.99 68.51 69.26 69.39 69.75 69.02 69.27 64.26 62.49 65.22 67.43 67.49 67.69 68.49 67.53 68.10 67.30 67.26 67.30 65.93 64.36 64.24 64.51 64.86 65.42 66.14 66.93 68.58 70.41 72.48 73.24 74.02 74.74
75.44 77.10 76.68 75.98 74.20 72.19 72.93 72.08 71.97 70.82 70.72 70.55 69.43 69.56 67.32 65.98 66.07 64.87 63.58 64.64 64.79 66.72 67.18 67.12 67.08 67.95 68.06 68.11 65.21 63.49 63.62 63.44 63.72 63.90 64.36 64.87 65.44 65.89 67.34 69.90 71.41 72.86 73.59
72.13 74.14 75.16 74.25 73.19 73.89 73.21 72.25 71.62 71.01 70.41 69.49 70.07 68.06 68.88 67.66 68.25 66.16 64.58 63.33 63.08 64.90 65.29 66.28 67.39 66.54 67.38 66.95 67.29 64.16 66.09 63.67 63.05 62.93 62.92 63.37 64.10 64.72 65.73 66.08 68.09 70.17 72.13
72.02 74.31 73.37 73.66 73.75 73.52 72.98 72.05 70.33 70.10 70.72 69.72 69.90 69.80 68.05 67.53 67.72 66.84 65.25 63.69 61.55 62.09 64.01 64.95 66.95 66.22 66.13 66.45 67.36 65.15 67.63 64.91 64.13 63.33 63.38 63.35 63.07 63.60 64.50 64.78 65.24 66.20 68.31
72.50 73.19 73.55 72.79 73.21 73.15 72.39 71.89 70.22 70.60 70.41 70.21 69.73 70.07 68.94 67.62 67.69 67.48 66.84 65.84 63.31 60.13 61.00 64.31 63.99 67.06 66.64 66.87 67.89 67.53 67.74 67.15 64.40 63.95 63.39 63.21 63.02 63.12 63.63 63.80 64.19 64.41 64.69
73.10 72.24 72.66 72.57 72.41 72.17 71.64 72.17 70.56 70.65 70.26 68.78 68.88 69.43 69.69 68.20 67.89 67.86 67.35 66.79 66.14 64.13 61.14 64.10 64.04 66.29 67.40 67.15 68.01 68.06 68.20 66.76 65.75 64.40 63.78 62.88 62.87 63.00 63.30 63.71 63.96 64.07 64.29
72.65 72.06 72.30 71.81 71.60 70.99 71.48 71.50 71.04 69.72 69.47 69.71 69.71 69.20 69.08 70.31 68.16 67.40 67.58 67.26 66.43 65.63 62.48 63.86 65.19 67.30 67.96 68.15 68.10 68.37 68.32 68.02 67.51 65.16 64.17 63.45 62.58 62.65 62.71 62.65 62.84 62.93 63.17
71.87 71.10 70.55 70.50 70.39 71.07 71.62 70.87 69.85 69.12 68.96 68.69 68.66 69.01 68.71 68.23 69.08 69.48 67.17 67.96 66.80 67.37 64.33 64.60 66.38 65.28 67.82 68.01 67.77 67.61 66.96 67.01 66.82 65.65 63.91 62.81 62.34 61.75 61.38 61.12 60.96 61.07 61.07
71.02 68.49 69.90 69.58 69.87 70.56 70.89 71.15 70.25 69.19 68.85 68.90 69.06 68.80 68.70 68.60 68.32 67.89 67.76 66.39 66.20 66.80 66.17 64.33 63.51 64.86 65.31 65.95 66.64 67.22 66.64 67.79 65.89 65.24 62.85 62.41 62.01 61.43 60.54 59.87 59.43 59.04 58.62
70.45 69.56 68.18 69.92 70.65 70.84 70.48 70.01 70.14 69.78 69.47 69.27 69.65 69.65 69.38 68.74 68.22 68.18 67.69 67.50 67.18 65.90 66.27 63.91 63.45 63.39 63.55 64.78 65.09 63.13 62.69 64.27 63.67 65.02 65.02 63.28 62.91 62.81 61.66 60.10 59.91 59.73 57.87
70.33 69.66 68.69 69.09 69.97 69.65 69.04 70.12 70.17 69.15 69.25 69.58 69.58 69.61 69.85 69.14 67.39 66.62 66.43 67.32 67.73 65.08 63.75 62.68 61.64 62.47 62.06 63.58 63.73 63.48 61.68 62.78 64.20 64.87 63.21 63.31 63.57 64.12 64.41 62.43 62.86 62.35 59.87
70.85 70.26 69.52 69.50 69.71 68.70 64.14 64.44 68.38 69.02 69.17 69.54 69.12 69.57 69.93 67.87 66.21 63.89 63.39 63.46 63.89 63.99 63.40 61.76 61.42 62.54 63.22 62.95 63.05 61.90 61.11 59.80 58.82 63.66 62.75 61.67 63.89 63.12 63.84 64.24 62.23 61.03 59.75
69.24 70.58 69.81 69.50 69.31 69.77 61.86 62.43 64.40 68.71 68.90 69.61 69.65 70.04 68.57 67.04 66.76 67.63 64.51 62.62 62.09 61.42 61.52 63.36 62.04 62.54 62.14 63.09 63.05 61.45 60.53 59.91 59.10 61.27 62.44 59.96 62.86 61.70 63.13 64.26 60.92 60.03 58.76
69.77 69.43 69.79 70.06 70.07 69.42 61.64 60.84 63.37 68.10 69.10 69.08 66.16 65.46 65.11 65.00 67.76 66.57 65.24 65.31 65.03 65.40 65.51 64.65 64.47 63.89 63.49 63.49 61.95 60.64 60.20 59.15 60.06 61.16 63.47 58.29 61.19 60.67 62.91 63.83 60.70 59.61 58.02
69.01 69.38 69.54 69.68 69.97 70.15 59.83 59.26 62.41 67.85 67.30 64.73 64.55 64.71 64.76 64.15 62.84 59.91 63.87 63.50 64.01 64.17 62.75 59.18 58.14 57.41 57.20 57.69 58.31 59.17 57.80 56.62 56.93 59.12 62.02 59.59 59.48 60.24 61.58 60.80 60.76 59.04 57.29
68.48 68.69 69.10 70.75 66.41 70.34 57.41 57.01 62.43 67.34 65.75 64.21 63.60 63.67 60.12 59.36 59.32 56.35 61.95 62.74 61.76 62.64 63.10 62.56 61.70 60.59 59.55 61.48 59.17 60.47 58.53 57.47 58.08 57.30 60.67 58.59 58.32 57.00 52.68 56.18 58.85 60.99 60.59
MSLP
1017.87 1017.98 1018.08 1018.29 1018.10 1018.00 1017.42 1017.91 1017.73 1017.68 1017.60 1017.38 1017.35 1017.40 1017.20 1017.23 1017.22 1016.67 1016.29 1017.52 1018.09 1018.37 1018.56 1018.62 1018.79 1019.11 1019.21 1019.60 1019.83 1020.02 1020.28 1020.61 1020.91 1021.13 1021.26 1021.43 1021.64 1021.76 1021.88 1022.00 1022.04 1022.12 1022.22
1017.72 1018.34 1018.21 1017.62 1017.95 1017.92 1017.66 1018.11 1018.27 1018.07 1018.00 1017.38 1017.37 1017.30 1017.32 1017.36 1017.30 1017.46 1016.71 1016.72 1017.73 1018.19 1018.27 1018.38 1018.51 1018.73 1018.94 1019.12 1019.47 1019.70 1019.89 1020.15 1020.47 1020.77 1020.97 1021.13 1021.35 1021.55 1021.68 1021.80 1021.88 1021.89 1021.94
1017.81 1018.09 1017.86 1017.97 1017.68 1017.61 1018.15 1018.35 1018.21 1017.55 1017.44 1017.01 1017.04 1017.12 1017.14 1017.14 1017.05 1017.29 1017.26 1016.92 1016.71 1017.49 1017.92 1018.22 1018.22 1018.42 1018.56 1018.73 1019.02 1019.26 1019.43 1019.75 1020.06 1020.36 1020.68 1020.90 1021.03 1021.21 1021.41 1021.54 1021.62 1021.68 1021.72
1017.86 1017.86 1018.31 1017.85 1017.39 1017.66 1017.41 1017.77 1017.94 1017.40 1017.16 1017.09 1017.06 1017.03 1016.84 1016.93 1016.92 1017.14 1016.94 1016.94 1016.56 1016.46 1017.26 1017.46 1017.98 1018.22 1018.33 1018.40 1018.52 1018.72 1019.04 1019.34 1019.60 1019.88 1020.21 1020.48 1020.69 1020.86 1020.98 1021.14 1021.25 1021.33 1021.40
1017.34 1017.49 1017.60 1017.38 1017.61 1017.40 1017.85 1017.42 1017.38 1017.65 1017.41 1017.18 1016.95 1016.71 1016.84 1016.84 1016.61 1016.39 1016.85 1016.89 1016.76 1016.85 1016.39 1017.12 1017.57 1018.00 1018.14 1018.20 1018.32 1018.41 1018.63 1018.89 1019.18 1019.42 1019.65 1019.91 1020.15 1020.40 1020.59 1020.72 1020.83 1020.95 1021.04
1016.90 1017.03 1016.95 1017.28 1017.66 1017.18 1017.52 1017.54 1018.05 1017.82 1017.71 1017.44 1017.21 1016.97 1017.00 1016.98 1016.73 1016.66 1016.70 1016.55 1016.79 1016.94 1016.65 1016.92 1016.69 1016.52 1017.64 1017.95 1018.02 1018.21 1018.34 1018.48 1018.72 1018.94 1019.14 1019.35 1019.62 1019.87 1020.05 1020.23 1020.37 1020.49 1020.61
1016.70 1016.71 1016.53 1016.90 1017.36 1017.29 1017.35 1017.94 1017.93 1017.69 1017.44 1017.42 1017.30 1016.56 1016.73 1017.25 1017.08 1016.72 1016.50 1016.74 1017.06 1017.03 1017.29 1017.11 1016.56 1016.40 1016.91 1017.60 1018.13 1018.38 1018.41 1018.31 1018.32 1018.46 1018.59 1018.79 1018.98 1019.27 1019.43 1019.61 1019.78 1019.97 1020.09
1016.26 1016.55 1016.63 1016.65 1017.00 1016.90 1017.75 1017.96 1018.13 1017.77 1017.45 1017.68 1017.36 1016.79 1016.04 1016.32 1016.59 1016.86 1017.08 1016.91 1017.17 1016.95 1017.21 1017.56 1017.62 1017.57 1017.41 1017.69 1018.18 1018.69 1018.79 1018.55 1018.36 1018.16 1018.22 1018.33 1018.54 1018.74 1018.88 1019.01 1019.17 1019.31 1019.47
1016.03 1016.43 1016.63 1016.55 1017.19 1017.35 1017.03 1017.92 1018.05 1018.34 1017.51 1017.68 1018.19 1017.50 1016.36 1015.79 1016.26 1016.67 1017.39 1017.38 1017.52 1017.20 1017.28 1017.78 1018.20 1018.51 1018.36 1018.06 1017.99 1018.48 1018.94 1018.87 1018.63 1018.50 1018.37 1018.37 1018.43 1018.57 1018.45 1018.49 1018.55 1018.67 1018.81
1015.84 1016.16 1016.55 1016.81 1017.13 1016.86 1017.47 1017.61 1017.87 1018.24 1018.43 1017.70 1017.85 1017.97 1017.99 1017.91 1016.69 1015.97 1016.71 1017.30 1017.53 1017.36 1017.92 1017.63 1018.03 1018.41 1018.51 1018.17 1018.76 1019.11 1018.98 1018.90 1018.89 1018.78 1018.65 1018.42 1018.35 1018.18 1018.11 1018.13 1018.09 1018.13 1018.17
1015.60 1015.76 1016.30 1016.72 1017.23 1017.18 1017.55 1017.75 1017.96 1018.16 1017.99 1017.92 1017.61 1017.57 1017.88 1017.70 1018.15 1017.31 1016.24 1016.53 1017.05 1017.27 1017.40 1017.64 1017.80 1017.78 1018.17 1018.39 1018.28 1019.05 1019.10 1019.01 1018.92 1018.81 1018.71 1018.59 1018.33 1018.06 1018.02 1017.79 1017.64 1017.64 1017.62
1015.37 1015.68 1015.90 1016.41 1016.88 1016.98 1017.59 1017.87 1018.16 1018.25 1018.18 1018.22 1018.04 1018.02 1017.58 1017.44 1017.28 1017.43 1016.95 1016.74 1016.78 1016.84 1017.15 1017.15 1017.47 1017.72 1017.89 1017.95 1018.45 1018.89 1018.81 1018.83 1018.86 1018.73 1018.66 1018.52 1018.30 1018.13 1017.88 1017.62 1017.34 1017.12 1017.03
1015.03 1015.82 1016.39 1016.61 1016.69 1017.05 1017.38 1017.87 1018.52 1018.49 1018.55 1018.47 1018.48 1017.92 1017.79 1017.59 1017.64 1017.77 1017.51 1016.91 1016.71 1016.67 1016.89 1016.99 1016.96 1017.16 1017.44 1017.66 1017.66 1018.53 1018.47 1018.58 1018.40 1018.34 1018.25 1018.15 1018.17 1017.92 1017.66 1017.46 1017.25 1017.00 1016.75
1015.02 1015.53 1016.24 1016.46 1016.68 1016.77 1017.04 1017.52 1017.99 1018.32 1018.26 1018.33 1018.47 1018.47 1018.05 1017.71 1017.57 1017.54 1017.57 1017.38 1016.79 1016.24 1015.94 1016.68 1016.85 1016.96 1017.02 1017.33 1017.57 1018.15 1017.67 1018.02 1018.17 1018.15 1017.97 1017.85 1017.71 1017.65 1017.46 1017.20 1017.00 1016.76 1016.53
1014.55 1015.50 1015.67 1016.22 1016.69 1016.87 1017.06 1017.45 1017.59 1017.91 1018.19 1018.20 1018.03 1018.26 1018.29 1017.82 1017.56 1017.53 1017.65 1017.50 1017.27 1016.64 1016.06 1015.93 1016.34 1016.80 1017.27 1017.07 1017.15 1017.37 1017.18 1017.10 1017.35 1017.42 1017.37 1017.35 1017.22 1017.10 1017.01 1016.94 1016.73 1016.48 1016.23
1014.26 1014.90 1015.54 1015.84 1016.37 1016.85 1016.97 1017.48 1017.24 1017.49 1017.90 1017.94 1017.78 1017.97 1018.20 1017.69 1017.59 1017.53 1017.50 1017.33 1017.14 1016.93 1016.30 1016.19 1015.99 1016.14 1016.48 1016.90 1016.99 1017.01 1016.75 1016.88 1016.64 1016.55 1016.62 1016.55 1016.47 1016.51 1016.41 1016.24 1016.18 1016.04 1015.77
1014.44 1014.71 1014.82 1015.65 1016.28 1016.63 1016.64 1017.03 1017.15 1017.16 1017.47 1017.65 1017.70 1017.84 1017.89 1018.05 1017.67 1017.16 1017.00 1017.44 1016.91 1016.73 1016.16 1015.76 1015.88 1015.84 1016.07 1016.36 1016.17 1016.21 1016.13 1015.87 1015.39 1015.23 1015.35 1015.60 1015.60 1015.64 1015.61 1015.51 1015.43 1015.30 1015.17
1013.88 1014.39 1015.42 1014.72 1015.12 1015.70 1016.28 1016.53 1016.78 1016.76 1017.24 1017.32 1017.37 1017.47 1017.53 1017.39 1017.47 1017.68 1017.38 1017.02 1016.81 1016.89 1016.75 1016.03 1015.87 1015.78 1015.62 1015.48 1015.43 1015.58 1015.51 1015.12 1014.76 1014.40 1014.64 1014.77 1014.64 1014.48 1014.42 1014.49 1014.50 1014.37 1014.25
1013.26 1014.19 1013.88 1014.41 1015.23 1015.25 1015.59 1015.98 1016.15 1016.53 1016.72 1016.85 1016.59 1016.88 1016.94 1016.87 1016.95 1016.77 1016.88 1016.59 1016.14 1016.33 1016.14 1016.26 1015.84 1015.50 1015.26 1015.00 1014.68 1014.85 1014.72 1014.35 1014.15 1013.59 1013.32 1013.42 1013.26 1013.34 1013.34 1013.23 1013.20 1013.17 1013.06
1012.26 1012.84 1012.77 1012.83 1014.02 1014.50 1014.99 1015.33 1015.58 1015.80 1015.99 1016.16 1016.19 1016.11 1016.23 1016.34 1016.32 1016.37 1016.43 1016.33 1016.41 1016.38 1016.10 1015.84 1015.18 1015.31 1014.99 1014.55 1014.20 1014.04 1013.70 1012.93 1012.67 1012.48 1012.20 1011.99 1011.89 1011.89 1011.85 1011.68 1011.52 1011.67 1011.68
1011.26 1012.01 1012.75 1013.03 1013.76 1014.22 1014.01 1014.82 1015.02 1015.33 1015.69 1015.57 1015.61 1015.67 1015.70 1015.75 1015.85 1016.15 1016.15 1015.84 1015.97 1016.06 1015.46 1015.02 1014.55 1014.34 1014.21 1013.98 1014.03 1013.57 1013.21 1012.62 1012.47 1012.14 1011.50 1011.01 1010.33 1009.97 1009.77 1009.91 1009.87 1009.71 1009.75
1010.38 1011.34 1011.88 1012.47 1013.16 1013.16 1013.55 1014.16 1014.47 1014.60 1014.89 1015.04 1014.93 1015.30 1015.33 1015.66 1015.85 1015.93 1016.01 1016.13 1016.20 1016.11 1015.78 1015.48 1014.62 1014.38 1014.55 1014.31 1013.83 1013.46 1013.17 1012.76 1011.64 1011.84 1011.12 1010.47 1010.14 1009.24 1008.96 1008.66 1008.41 1008.40 1008.40
1010.34 1010.99 1011.53 1012.36 1012.40 1012.77 1013.16 1013.53 1013.87 1014.18 1014.16 1014.58 1014.87 1015.36 1015.60 1015.66 1015.38 1015.29 1015.28 1015.62 1015.67 1015.75 1015.66 1015.50 1015.12 1014.54 1014.22 1014.08 1013.97 1013.98 1013.74 1013.06 1012.29 1011.72 1011.48 1009.98 1009.56 1008.48 1008.15 1007.28 1007.07 1007.16 1007.14
1009.51 1010.27 1010.92 1011.45 1011.91 1012.01 1012.51 1013.04 1013.63 1013.94 1014.00 1014.36 1014.55 1014.88 1015.57 1015.74 1015.49 1015.15 1015.18 1014.92 1014.73 1014.50 1014.41 1014.53 1014.33 1014.34 1014.27 1014.10 1014.25 1013.92 1013.47 1013.23 1012.63 1011.61 1010.83 1009.19 1008.82 1007.33 1006.85 1006.32 1006.20 1005.84 1005.55
1009.11 1009.66 1010.30 1010.70 1011.08 1011.58 1011.85 1012.34 1012.97 1013.34 1013.51 1013.96 1014.17 1014.20 1014.53 1015.27 1015.43 1015.53 1015.20 1014.58 1014.18 1013.82 1013.47 1014.00 1014.38 1014.53 1014.48 1014.09 1014.06 1013.68 1012.79 1012.20 1011.27 1010.18 1009.23 1007.90 1007.49 1006.78 1006.56 1005.26 1005.03 1004.33 1003.73
1008.85 1008.95 1009.34 1009.70 1010.42 1010.81 1011.50 1011.96 1012.35 1012.72 1012.98 1013.39 1013.60 1013.71 1013.88 1014.44 1015.09 1015.28 1015.15 1014.34 1013.87 1013.38 1013.25 1013.51 1013.71 1013.51 1013.07 1012.40 1012.53 1012.55 1012.17 1011.50 1010.54 1008.94 1008.02 1007.74 1007.28 1007.38 1005.53 1004.79 1003.59 1002.53 1001.89
Wind_Speed
4 4 3 4 3 5 4 3 4 5 7 6 5 5 6 4 6 5 2 9 6 9 11 13 13 14 14 13 13 15 14 13 13 13 12 10 12 11 10 10 9 8 7
5 1 6 6 3 5 3 3 4 5 5 5 6 4 5 5 4 5 7 3 9 8 11 13 13 14 14 15 15 14 14 16 15 14 13 12 11 12 12 11 11 10 9
8 6 6 5 5 4 6 2 5 5 5 5 5 4 5 3 6 5 6 7 5 13 10 12 13 12 15 15 16 15 15 13 13 15 14 13 12 14 12 12 12 12 10
9 6 4 6 5 4 4 4 4 4 5 5 4 6 5 5 6 7 7 5 6 6 12 12 10 10 14 16 16 16 15 14 15 15 16 15 14 14 14 13 13 13 11
7 6 5 6 5 5 6 4 4 4 6 6 6 4 4 4 4 3 3 3 3 5 5 14 8 8 11 15 15 14 14 15 14 15 16 16 16 16 15 15 14 12 12
8 6 5 5 4 5 5 2 4 7 5 4 6 5 4 3 2 1 4 1 5 3 4 2 4 8 7 3 10 12 12 13 15 17 16 16 16 16 17 16 15 14 14
10 7 7 5 5 7 2 1 4 3 6 4 6 2 2 4 1 1 2 3 3 2 4 4 3 3 7 7 9 6 4 6 15 14 16 17 17 17 17 17 17 16 16
8 7 6 4 3 2 2 2 3 5 2 3 5 4 2 6 4 1 1 2 4 2 3 4 5 5 3 4 7 8 7 7 8 4 6 11 15 17 18 17 17 17 17
7 6 5 4 4 5 2 2 2 3 4 2 4 4 3 2 3 5 4 3 2 3 4 4 6 6 5 5 2 9 10 9 6 6 6 7 5 8 12 17 18 18 18
5 5 5 5 4 3 2 1 1 4 4 3 1 1 3 6 4 2 5 3 3 2 4 3 5 5 4 4 6 8 6 7 7 8 7 6 7 8 10 9 10 17 18
7 7 6 5 4 5 3 2 2 2 2 5 2 1 1 2 0 5 4 2 1 3 3 1 2 1 3 3 3 8 6 6 6 6 7 8 7 8 11 12 13 13 14
7 7 8 7 6 4 4 3 3 3 3 3 4 2 3 3 2 4 5 4 3 2 3 3 3 2 2 1 2 0 0 2 5 6 8 9 8 8 9 11 14 15 16
6 7 7 7 7 6 4 3 4 4 4 5 3 5 3 4 2 5 6 6 5 4 3 4 2 3 2 4 2 2 4 5 4 5 6 8 10 11 11 10 11 14 15
6 8 8 7 7 7 6 5 6 6 5 6 6 6 6 5 4 4 6 7 7 7 4 5 3 4 4 5 7 5 10 10 6 7 8 9 10 11 12 13 13 13 15
6 7 9 8 8 8 7 7 7 6 6 6 5 6 7 7 6 5 6 6 7 9 8 6 4 3 5 6 6 9 10 7 5 10 11 10 11 12 13 14 15 15 15
10 11 10 9 9 8 8 9 7 7 6 6 6 6 7 8 6 6 7 6 6 8 10 8 8 8 5 7 9 10 11 8 15 15 14 13 12 13 14 15 16 16 16
10 10 12 8 8 10 10 10 9 8 8 8 8 8 9 9 8 8 5 7 8 8 11 9 9 9 8 10 10 10 11 12 11 15 15 13 14 14 15 16 17 17 18
13 11 7 7 12 13 11 10 11 9 9 9 9 9 9 8 9 8 9 9 9 9 10 13 12 11 11 10 11 11 11 12 13 11 9 12 15 16 17 18 18 19 19
14 11 13 12 10 12 12 12 12 9 10 11 10 10 10 10 10 9 8 9 9 7 9 9 12 12 11 11 11 10 11 12 12 17 18 21 19 17 17 18 21 21 21
17 17 14 12 13 14 13 14 13 12 12 12 11 11 11 11 11 10 9 9 9 9 11 11 10 10 11 11 5 8 11 11 12 13 12 13 16 18 21 22 24 24 23
17 13 8 10 12 13 12 14 13 11 12 12 12 11 12 10 6 7 8 9 9 10 11 11 12 10 11 8 10 11 13 12 13 13 13 13 13 13 13 16 21 24 26
15 12 12 12 14 11 12 12 12 12 12 12 10 11 10 6 9 10 10 11 11 11 11 11 12 11 12 12 12 10 12 13 15 12 13 14 14 15 14 15 19 16 19
15 12 11 13 14 14 10 14 15 13 11 9 8 8 9 7 8 9 11 12 12 15 15 10 13 13 13 13 13 10 13 14 15 14 14 16 14 16 16 15 15 14 16
16 13 13 12 13 12 12 13 10 11 10 6 3 1 6 10 12 10 8 11 11 11 10 10 10 11 12 12 13 13 14 14 14 14 15 17 13 16 15 16 25 25 26
14 12 11 13 11 15 11 17 15 12 9 7 4 4 3 5 9 3 9 10 11 10 6 9 9 11 14 16 16 10 11 11 12 13 14 14 15 16 17 18 17 29 30
12 12 12 11 10 14 14 16 14 8 9 6 5 6 9 8 5 7 9 10 10 10 9 11 12 13 16 15 20 13 9 11 12 15 13 14 17 14 13 13 16 14 13
Wind_Direction
241 249 289 271 287 267 269 306 311 327 324 292 304 298 303 309 314 305 313 135 205 215 220 215 213 211 211 217 220 211 208 210 214 219 228 223 208 213 222 227 230 228 233
248 270 257 256 302 300 318 321 322 327 299 301 288 299 314 311 327 319 315 147 169 220 220 223 218 210 218 213 217 224 222 217 214 222 224 222 225 225 225 234 241 240 241
245 255 255 280 271 211 246 297 283 284 276 281 281 276 284 231 290 303 289 290 190 182 210 229 223 221 212 217 219 214 213 222 227 219 222 228 230 226 228 234 239 243 241
264 267 256 263 262 271 301 253 261 310 312 313 308 288 314 301 294 280 268 295 278 298 181 196 223 226 226 221 220 219 223 229 219 219 223 227 229 227 227 233 243 234 238
248 256 263 266 257 267 244 268 306 327 321 298 296 285 299 281 291 344 326 287 285 252 281 156 198 241 240 234 230 224 218 221 229 227 222 226 228 228 232 236 237 235 237
257 243 236 253 245 217 242 319 332 343 305 328 317 324 300 292 334 173 83 358 78 358 340 311 229 198 199 280 247 241 238 235 228 230 230 230 232 232 231 234 235 234 236
244 247 256 237 233 234 347 288 309 299 314 14 283 331 144 208 230 67 116 23 58 34 44 14 320 325 145 159 68 54 20 293 237 233 235 234 232 235 233 228 229 233 233
229 235 254 244 209 145 230 311 346 314 290 30 328 277 226 165 189 116 29 39 17 24 64 56 42 33 359 79 85 67 50 40 19 358 280 256 244 240 235 230 228 230 233
240 230 222 255 169 272 277 301 344 333 329 329 348 321 264 12 335 146 177 54 356 33 27 84 53 47 30 55 197 92 39 28 21 1 6 354 329 317 265 239 233 231 233
226 196 199 197 204 271 6 224 313 328 295 329 261 169 344 359 327 203 156 135 144 88 50 81 99 90 40 72 93 67 50 39 23 7 358 330 313 320 301 285 267 242 235
215 203 189 184 195 248 156 276 254 283 289 316 288 322 353 280 86 306 310 91 214 137 136 265 5 1 117 25 84 90 56 45 21 6 354 349 339 312 287 280 270 268 264
192 209 189 182 187 199 208 235 250 232 277 310 306 283 269 297 321 302 288 275 340 260 311 232 239 292 317 332 137 180 339 357 357 351 339 332 326 323 310 289 284 278 271
201 168 192 192 185 198 189 240 230 270 247 279 254 298 275 258 285 299 298 292 297 293 284 282 250 277 264 274 333 327 281 226 271 303 309 310 311 312 313 313 296 284 283
204 157 196 201 211 193 193 190 222 244 225 243 263 281 299 277 272 264 281 303 297 291 243 228 268 302 280 274 322 257 275 195 226 266 279 281 288 291 297 303 299 294 283
183 189 193 199 214 208 200 197 234 223 242 238 251 254 266 281 274 276 274 277 289 295 299 309 299 298 272 289 331 301 286 269 229 268 267 262 268 275 281 288 289 290 285
185 179 191 188 198 207 205 216 233 218 234 252 251 262 262 271 267 251 263 269 266 281 289 299 299 310 291 292 290 291 280 275 258 245 241 246 252 262 270 279 282 280 279
173 178 177 176 201 213 208 220 243 257 229 239 252 256 258 265 270 277 261 268 270 280 284 289 304 299 301 263 280 282 284 286 278 220 220 228 238 251 261 268 271 273 275
178 175 200 165 194 211 220 219 231 242 234 243 248 250 256 254 250 255 268 264 282 293 285 292 298 293 286 291 280 286 288 293 289 279 211 228 234 240 250 254 257 261 264
174 180 183 190 209 205 212 217 225 230 236 243 239 243 254 257 259 269 286 287 275 249 258 265 284 290 297 290 280 275 269 281 273 254 230 235 238 241 244 244 245 248 248
182 198 202 181 193 197 208 219 214 220 230 238 240 241 249 254 259 268 265 270 271 273 271 275 273 279 283 286 245 267 276 291 298 300 291 260 260 247 235 236 241 243 241
189 206 193 195 201 214 210 215 221 219 236 240 246 247 241 248 268 283 281 284 303 281 287 294 298 291 271 312 307 304 298 303 294 285 290 290 288 280 276 248 247 239 239
192 193 187 205 215 216 203 195 212 222 228 242 251 262 262 239 237 234 242 255 273 275 278 281 287 294 293 290 290 300 307 295 296 293 295 288 289 281 281 281 282 262 267
201 209 202 214 221 227 202 193 203 225 235 251 266 282 287 272 265 265 221 222 236 234 236 272 279 281 292 290 305 301 286 291 285 293 292 283 280 285 281 280 272 273 258
211 212 211 227 240 237 196 206 182 221 221 226 153 17 318 300 286 259 259 269 272 274 245 238 268 286 290 299 298 292 290 288 283 273 265 269 268 277 296 293 286 276 268
210 211 219 229 234 240 174 168 178 207 202 202 187 193 207 288 306 206 261 271 279 281 250 200 228 253 256 258 258 285 282 280 285 293 289 285 305 299 298 293 288 276 267
214 219 211 216 222 239 170 174 190 204 199 198 187 186 184 209 247 212 257 269 273 279 293 305 290 259 242 251 233 237 254 264 278 283 302 308 305 312 299 292 282 291 281